Location: Hohe Wand Waldeggerhaus
(47.8500°N, 16.0440°E)
Time: 12:57:21
(UTC+01:00)

N. Korean satellite - Visible Passes

Search period start: 29 January 2023 00:00
Search period end: 08 February 2023 00:00
Orbit: 407 x 444 km, 97.3° (Epoch: 28 January)

Date Brightness Start Highest point End Pass type
(mag) Time Alt. Az. Time Alt. Az. Time Alt. Az.
29 Jan 6.5 05:19:34 10° NNE 05:22:46 70° ESE 05:25:58 10° S visible
29 Jan 9.6 17:24:09 10° SW 17:26:03 15° W 17:27:57 10° NW visible
30 Jan 9.0 04:37:52 10° NE 04:40:17 19° E 04:42:42 10° SE visible
30 Jan 7.3 06:09:51 10° NNW 06:12:34 25° WNW 06:15:17 10° SW visible
31 Jan 6.2 05:27:03 10° NNE 05:30:17 88° ESE 05:33:31 10° SSW visible
31 Jan 9.8 17:32:12 10° WSW 17:33:33 12° W 17:34:55 10° WNW visible
01 Feb 8.7 04:45:01 10° NE 04:47:42 24° E 04:50:23 10° SSE visible
01 Feb 7.5 06:17:22 10° NNW 06:19:54 21° WNW 06:22:24 10° WSW visible
02 Feb 6.1 05:34:17 10° N 05:37:31 74° WNW 05:40:46 10° SSW visible
03 Feb 8.3 04:51:58 10° NE 04:54:50 29° E 04:57:43 10° SSE visible
03 Feb 7.8 06:24:39 10° NNW 06:26:56 18° WNW 06:29:13 10° WSW visible
04 Feb 6.2 05:41:17 10° N 05:44:28 59° WNW 05:47:40 10° SSW visible
05 Feb 7.9 04:58:40 10° NNE 05:01:42 35° E 05:04:43 10° SSE visible
05 Feb 8.0 06:31:42 10° NNW 06:33:41 15° WNW 06:35:42 10° WSW visible
06 Feb 9.8 04:17:38 10° ENE 04:18:37 11° E 04:19:35 10° ESE visible
06 Feb 6.5 05:47:59 10° N 05:51:08 48° WNW 05:54:17 10° SSW visible
07 Feb 7.5 05:05:08 10° NNE 05:08:16 42° E 05:11:24 10° S visible
07 Feb 8.2 06:38:31 10° NNW 06:40:10 13° WNW 06:41:49 10° W visible
